Find USA 575

NORAD ID: 67487 Int'l Des: 2026-011 Owner: NROC Country: US operational
LEOCIRCULAR

Live-Position

3D-Globus wird geladen...

Über USA 575

Beschreibung wird geladen...

Nächste Überflüge

Passes for default location (London). Set your location on the main map for personalized predictions.

Höhenverlauf

Loading altitude history...

Zweizeiliger Elementsatz

1 67487C 26012D 26027.43381944 -.01313400 00000+0 -23850-2 0 271
2 67487 42.9974 194.9127 0001243 281.1516 194.8772 16.01778678 16
Epoch: 27. Jan. 2026 • Age: 2286 hours

Aktueller Status

Höhe 24761357.7 km
Geschwindigkeit 0.13 km/s
Subsatellitenpunkt 21.21°N, 79.64°W
Startdatum 17. Jan. 2026
Alter 0.2 years
Typ military

Technische Details

Klassifizierung Payload
Masse 800.00 kg
Trockenmasse 750.00 kg
Gesamtmasse 800.00 kg
Länge 0.30 m
Durchmesser 4.10 m
Spannweite 29.00 m
Form Box + pan
Hersteller SPXS
Bus-Typ Starshield
Phasenstatus In Orbit
Besitzer/Staat NROC/US

Most Searched